This demonstration page uses our WeatherBlox Daily Observations layout. Learn more.

Left ArrowRight Arrow

44.8408, -93.29828

Hourly Observations for March 24, 2020

Temp ( °F °C ) Dew Point ( °F °C ) Humidity (%) Winds ( mph kmh ) Pressure ( in mb ) Visibility ( mi km ) Precip ( " mm )
12:12 am 00:12 Mostly Cloudy 36 2.2 33 0.6 89 89 SE 5 7 30.13 1020 8 13 0.00 0.00
12:53 am 00:53 Cloudy with Mist and Fog 37 2.8 34 1.1 89 89 SE 6 9 30.11 1020 4 6 0.00 0.00
1:03 am 01:03 Cloudy with Mist and Fog 37 2.8 34 1.1 89 89 SE 5 7 30.13 1020 6 10 0.00 0.00
1:53 am 01:53 Cloudy with Mist and Fog 38 3.3 35 1.7 89 89 ESE 7 11 30.11 1020 5 8 0.00 0.00
2:24 am 02:24 Cloudy with Mist and Fog 38 3.3 36 2.2 93 93 SE 6 9 30.11 1020 3 4 0.00 0.00
2:40 am 02:40 Cloudy with Mist and Fog 38 3.3 36 2.2 93 93 ESE 6 9 30.11 1020 3 5 0.00 0.00
2:53 am 02:53 Cloudy with Mist and Fog 38 3.3 36 2.2 93 93 ESE 7 11 30.09 1019 3 5 0.00 0.00
3:53 am 03:53 Cloudy with Mist and Fog 38 3.3 36 2.2 93 93 SE 7 11 30.08 1019 3 5 0.00 0.00
4:53 am 04:53 Cloudy with Mist and Fog 38 3.3 36 2.2 93 93 ESE 6 9 30.06 1018 3 5 0.00 0.00
5:53 am 05:53 Cloudy with Mist and Fog 38 3.3 36 2.2 93 93 SE 8 13 30.06 1018 3 4 0.00 0.00
6:28 am 06:28 Cloudy with Mist and Fog 38 3.3 36 2.2 93 93 SE 7 11 30.07 1018 3 5 0.00 0.00
6:53 am 06:53 Cloudy with Mist and Fog 38 3.3 37 2.8 97 97 SE 6 9 30.05 1018 4 6 0.00 0.00
7:10 am 07:10 Cloudy with Mist and Fog 38 3.3 36 2.2 93 93 SE 10 17 30.06 1018 4 6 0.00 0.00
7:53 am 07:53 Cloudy with Mist and Fog 38 3.3 37 2.8 97 97 SSE 9 15 30.04 1017 5 8 0.00 0.00
8:53 am 08:53 Cloudy with Mist and Fog 39 3.9 37 2.8 93 93 S 7 11 30.05 1018 6 10 0.00 0.00
9:53 am 09:53 Cloudy 40 4.4 37 2.8 89 89 SSE 8 13 30.05 1018 9 14 0.00 0.00
10:19 am 10:19 Cloudy 41 5 38 3.3 89 89 SSE 10 17 30.05 1018 10 16 0.00 0.00
10:53 am 10:53 Cloudy 43 6.1 38 3.3 82 82 SSE 14 22 30.03 1017 10 16 0.00 0.00
11:05 am 11:05 Cloudy 42 5.6 37 2.8 82 82 SSE 16 26 30.04 1017 10 16 0.00 0.00
11:53 am 11:53 Mostly Cloudy 45 7.2 37 2.8 74 74 SSE 14 22 30.01 1016 10 16 0.00 0.00
12:36 pm 12:36 Mostly Cloudy 46 7.8 36 2.2 68 68 S 15 24 29.99 1016 10 16 0.00 0.00
12:53 pm 12:53 Mostly Cloudy 48 8.9 37 2.8 66 66 S 12 19 29.98 1015 10 16 0.00 0.00
1:53 pm 13:53 Cloudy 48 8.9 36 2.2 63 63 SE 13 20 29.96 1014 10 16 0.00 0.00
2:09 pm 14:09 Cloudy 48 8.9 37 2.8 66 66 SE 12 19 29.94 1014 10 16 0.00 0.00
2:51 pm 14:51 Cloudy 48 9 37 3 66 66 S 14 22 29.94 1014 10 16 0.00 0.00
2:53 pm 14:53 Cloudy 49 9.4 36 2.2 61 61 S 14 22 29.94 1014 10 16 0.00 0.00
3:53 pm 15:53 Cloudy 48 8.9 35 1.7 61 61 S 23 37 29.94 1014 10 16 0.00 0.00
4:03 pm 16:03 Cloudy 47 8.3 36 2.2 66 66 SSE 20 31 29.95 1014 10 16 0.00 0.00
4:53 pm 16:53 Cloudy 46 7.8 36 2.2 68 68 S 15 24 29.93 1014 10 16 0.00 0.00
5:53 pm 17:53 Cloudy 44 6.7 34 1.1 68 68 S 17 28 29.91 1013 10 16 0.00 0.00
6:53 pm 18:53 Cloudy 43 6.1 34 1.1 71 71 S 14 22 29.92 1013 10 16 0.00 0.00
7:53 pm 19:53 Cloudy 43 6.1 34 1.1 71 71 SSE 9 15 29.91 1013 10 16 0.00 0.00
8:53 pm 20:53 Mostly Cloudy 42 5.6 34 1.1 73 73 SSE 12 19 29.88 1012 10 16 0.00 0.00
9:53 pm 21:53 Cloudy 42 5.6 34 1.1 73 73 S 10 17 29.87 1012 10 16 0.00 0.00
10:53 pm 22:53 Cloudy 43 6.1 35 1.7 74 74 S 10 17 29.86 1011 10 16 0.00 0.00
11:53 pm 23:53 Cloudy 43 6.1 36 2.2 76 76 S 9 15 29.85 1011 9 14 0.00 0.00

Powered by AerisWeather